Location: Seoul
(37.5670°N, 127.0000°E)
Time: 21:11:32
(UTC+09:00)

Envisat - Visible Passes

Search period start: 23 June 2024 00:00
Search period end: 03 July 2024 00:00
Orbit: 762 x 764 km, 98.3° (Epoch: 22 June)

Date Brightness Start Highest point End Pass type
(mag) Time Alt. Az. Time Alt. Az. Time Alt. Az.
23 Jun 5.0 02:46:52 10° NE 02:50:39 21° E 02:54:24 10° SE visible
23 Jun 3.6 04:25:00 10° N 04:29:43 40° WNW 04:34:25 10° SW visible
24 Jun 3.0 03:47:23 10° NNE 03:52:28 86° ESE 03:57:13 12° SSW visible
25 Jun 4.2 03:10:22 10° NNE 03:15:02 36° E 03:19:22 11° SSE visible
26 Jun 5.4 02:34:25 10° NE 02:37:23 15° E 02:40:20 10° SE visible
26 Jun 3.2 04:11:42 10° N 04:16:39 54° WNW 04:21:33 10° SSW visible
27 Jun 3.3 03:34:17 10° NNE 03:39:20 64° ESE 03:43:50 13° S visible
28 Jun 4.7 02:57:32 10° NE 03:01:49 27° E 03:05:59 10° SSE visible
28 Jun 4.0 04:36:17 10° N 04:40:43 31° WNW 04:45:09 10° SW visible
29 Jun 5.6 02:22:40 10° ENE 02:24:06 11° E 02:25:31 10° ESE visible
29 Jun 3.0 03:58:28 10° N 04:03:33 73° WNW 04:08:17 12° SSW visible
30 Jun 3.8 03:21:15 10° NNE 03:26:09 47° E 03:30:26 13° S visible
01 Jul 5.1 02:44:51 10° NE 02:48:34 20° E 02:52:16 10° SE visible
01 Jul 3.6 04:22:54 10° N 04:27:40 42° WNW 04:32:24 10° SW visible
02 Jul 3.0 03:45:18 10° NNE 03:50:24 84° ESE 03:54:53 13° SSW visible
